Regional Weather Roundup
Issued by NWS

Home | Current Version | Previous Version | Graphics & Text | Print | Product List | Glossary On
Versions: 1 2 3 4 5 6 7 8 9 10 11 12 13 14 15 16 17 18 19 20 21 22 23 24 25 26 27 28 29 30 31 32 33 34 35 36 37 38 39 40 41 42 43 44 45 46 47 48 49 50
000
ASUS44 KMEG 061000
RWRTN
TENNESSEE HOURLY STATE WEATHER ROUNDUP
NATIONAL WEATHER SERVICE MEMPHIS TN
500 AM CDT WED MAY 06 2015

TNZ002-004-019-021-049-052-054-088>092-061100-
WEST TENNESSEE

CITY           SKY/WX    TMP DP  RH WIND       PRES   REMARKS
MEMPHIS INTL   PTCLDY    68  55  63 SE8       30.12S
NWS MEMPHIS      N/A     58 N/A N/A MISG        N/A
JACKSON        CLEAR     55  52  89 CALM      30.15R
DYERSBURG      CLEAR     57  45  62 E3        30.15S
PARIS          CLEAR     55  54  94 E3        30.16S
LEXINGTON      CLEAR     54  52  94 CALM      30.16R
$$

TNZ008-025-027-028-033-062-065-066-061100-
NORTH MIDDLE TENNESSEE

CITY           SKY/WX    TMP DP  RH WIND       PRES   REMARKS
NASHVILLE      PTCLDY    62  57  83 CALM      30.18F
CLARKSVILLE    CLEAR     56  54  93 CALM      30.17S
COOKEVILLE     MOCLDY    63  57  82 CALM      30.20S
CROSSVILLE     CLOUDY    64  54  69 CALM      30.25S
$$

TNZ061-075-076-078-094-096-097-061100-
SOUTH MIDDLE TENNESSEE

CITY           SKY/WX    TMP DP  RH WIND       PRES   REMARKS
FAYETTEVILLE   CLEAR     57  52  82 CALM      30.20R
TULLAHOMA      PTCLDY    57  54  88 CALM      30.21S
WINCHESTER     CLEAR     59  54  82 CALM      30.21S
MCMINNVILLE    MOCLDY    61  61 100 CALM      30.21S
COLUMBIA       CLEAR     54  54 100 CALM      30.17S
SHELBYVILLE    CLOUDY    61  59  94 CALM      30.20S
$$

TNZ017-018-042-046-047-061100-
NORTHEAST TENNESSEE

CITY           SKY/WX    TMP DP  RH WIND       PRES   REMARKS
TRI CITIES     PTCLDY    56  54  93 CALM      30.26R
ELIZABETHTON   SUNNY     55  52  88 NE3       30.27R
$$

TNZ012-013-036-069-073-074-061100-
CENTRAL EAST TENNESSEE

CITY           SKY/WX    TMP DP  RH WIND       PRES   REMARKS
KNOXVILLE      PTCLDY    60  56  86 CALM      30.22S
OAK RIDGE      PTCLDY    61  57  87 CALM      30.23S
GATLINBURG     PTSUNNY   55  55 100 CALM      30.23S
$$

TNZ083-085-099-061100-
SOUTHEAST TENNESSEE

CITY           SKY/WX    TMP DP  RH WIND       PRES   REMARKS
CHATTANOOGA    CLEAR     58  56  93 CALM      30.21S
$$

SKY/WX REPORTED AS FAIR MEANS FEW OR NO CLOUDS BELOW
12 THOUSAND FEET.




USA.gov is the U.S. government's official web portal to all federal, state and local government web resources and services.